Location: Unspecified
(0.0000°N, 0.0000°E)
Time: 12:09:56
(UTC+00:00)

Vanguard 1 Rocket - All Passes

Search period start: 26 July 2016 00:00
Search period end: 05 August 2016 00:00
Orbit: 652 x 4225 km, 34.3° (Epoch: 25 July)

Date Brightness Start Highest point End Pass type
(mag) Time Alt. Az. Time Alt. Az. Time Alt. Az.
26 Jul - 00:49:36 10° W 00:53:26 29° NNW 00:57:53 10° NNE night (unlit)
26 Jul - 08:13:55 10° NNW 08:28:47 31° NE 08:49:39 10° E daylight
26 Jul - 10:39:48 10° NW 11:02:22 76° NE 11:27:48 10° ESE daylight
26 Jul - 13:11:34 10° WNW 13:36:25 52° SW 13:56:41 10° SE daylight
26 Jul - 15:56:33 10° WSW 16:10:47 19° SSW 16:21:16 10° SSE daylight
26 Jul - 21:14:20 10° S 21:16:38 12° SSE 21:18:40 10° SE visible
26 Jul - 23:37:54 10° WSW 23:42:39 79° NW 23:47:10 10° NE night (unlit)
27 Jul - 07:03:48 10° N 07:13:45 19° NNE 07:27:30 10° ENE daylight
27 Jul - 09:27:41 10° NW 09:46:54 55° NE 10:12:16 10° ESE daylight
27 Jul - 11:56:12 10° WNW 12:20:41 71° SW 12:44:18 10° SE daylight
27 Jul - 14:34:19 10° W 14:55:10 30° SSW 15:10:45 10° SSE daylight
27 Jul - 22:26:37 10° SW 22:31:52 38° SSE 22:35:59 10° ENE night (unlit)
28 Jul - 00:54:02 10° WNW 00:56:51 16° NNW 00:59:57 10° N night (unlit)
28 Jul - 08:16:31 10° NNW 08:31:56 38° NE 08:54:23 10° E daylight
28 Jul - 10:42:37 10° NW 11:04:54 87° NE 11:30:45 10° SE daylight
28 Jul - 13:15:31 10° W 13:39:20 44° SW 13:59:16 10° SSE daylight
28 Jul - 16:03:02 10° SW 16:15:02 16° SSW 16:24:13 10° SSE daylight
28 Jul - 21:15:29 10° SSW 21:20:24 20° SSE 21:24:06 10° ESE visible
28 Jul - 23:41:22 10° WSW 23:45:52 41° NW 23:50:06 10° NE night (unlit)
29 Jul - 07:06:19 10° NNW 07:17:24 24° NE 07:33:32 10° E daylight
29 Jul - 09:30:21 10° NW 09:49:31 66° NE 10:15:40 10° ESE daylight
29 Jul - 11:59:32 10° WNW 12:23:22 61° SW 12:46:55 10° SE daylight
29 Jul - 14:39:47 10° WSW 14:58:53 25° SSW 15:13:29 10° SSE daylight
29 Jul - 17:34:33 10° SSW 17:35:31 10° S 17:36:26 10° S daylight
29 Jul - 20:04:12 10° SSW 20:08:04 13° SSE 20:11:11 10° SE visible
29 Jul - 22:29:23 10° SW 22:35:13 71° SE 22:39:34 10° ENE night (unlit)
30 Jul - 05:58:12 10° N 06:03:04 12° NNE 06:08:59 10° NE daylight
30 Jul - 08:19:07 10° NNW 08:34:48 46° NE 08:58:34 10° ESE daylight
30 Jul - 10:45:37 10° WNW 11:07:29 81° SW 11:33:30 10° SE daylight
30 Jul - 13:19:55 10° W 13:42:34 37° SSW 14:01:52 10° SSE daylight
30 Jul - 16:09:23 10° SW 16:19:37 15° SSW 16:27:39 10° SSE daylight
30 Jul - 18:51:59 10° S 18:54:45 11° S 18:57:10 10° SSE visible
30 Jul - 21:17:33 10° SSW 21:24:02 32° SSE 21:28:26 10° E visible
30 Jul - 23:45:19 10° W 23:49:05 23° NW 23:52:37 10° NNE night (unlit)
31 Jul - 07:08:49 10° NNW 07:20:41 29° NE 07:38:54 10° E daylight
31 Jul - 09:33:09 10° NW 09:52:04 77° NE 10:18:44 10° ESE daylight
31 Jul - 12:03:12 10° WNW 12:26:15 51° SW 12:49:27 10° SE daylight
31 Jul - 14:45:43 10° WSW 15:03:01 22° SSW 15:16:28 10° SSE daylight
31 Jul - 17:35:55 10° SSW 17:40:15 11° S 17:43:56 10° SSE daylight
31 Jul - 20:05:29 10° SSW 20:12:01 20° SSE 20:16:32 10° ESE visible
31 Jul - 22:32:30 10° WSW 22:38:25 64° NW 22:42:47 10° NE night (unlit)
01 Aug - 05:59:58 10° N 06:06:53 16° NE 06:16:11 10° ENE daylight
01 Aug - 08:21:48 10° NW 08:37:28 55° NE 09:02:16 10° ESE daylight
01 Aug - 10:48:50 10° WNW 11:10:09 69° SW 11:36:05 10° SE daylight
01 Aug - 13:24:49 10° W 13:46:10 31° SSW 14:04:35 10° SSE daylight
01 Aug - 16:14:59 10° SW 16:24:26 14° S 16:31:53 10° SSE daylight
01 Aug - 18:52:36 10° SSW 18:59:02 15° SSE 19:03:46 10° SE visible
01 Aug - 21:20:01 10° SW 21:27:32 53° SSE 21:32:14 10° ENE visible
01 Aug - 23:50:12 10° WNW 23:52:19 13° NW 23:54:21 10° N night (unlit)
02 Aug - 07:11:22 10° NNW 07:23:40 36° NE 07:43:38 10° E daylight
02 Aug - 09:36:05 10° NW 09:54:39 90° NE 10:21:33 10° SE daylight
02 Aug - 12:07:15 10° W 12:29:25 43° SSW 12:51:59 10° SE daylight
02 Aug - 14:51:51 10° WSW 15:07:33 19° SSW 15:19:51 10° SSE daylight
02 Aug - 17:37:45 10° SSW 17:44:52 14° S 17:50:20 10° SSE daylight
02 Aug - 20:07:24 10° SSW 20:15:50 30° SSE 20:21:01 10° E visible
02 Aug - 22:36:01 10° WSW 22:41:31 36° NW 22:45:39 10° NNE night (unlit)
03 Aug - 06:02:05 10° N 06:10:22 20° NE 06:22:28 10° E daylight
03 Aug - 08:24:33 10° NW 08:40:03 66° NE 09:05:34 10° ESE daylight
03 Aug - 10:52:18 10° WNW 11:13:02 59° SW 11:38:34 10° SE daylight
03 Aug - 13:30:12 10° WSW 13:50:11 27° SSW 14:07:29 10° SSE daylight
03 Aug - 16:19:25 10° SSW 16:29:19 15° S 16:36:56 10° SSE daylight
03 Aug - 18:54:10 10° SSW 19:03:09 22° SSE 19:09:00 10° ESE visible
03 Aug - 21:22:49 10° SW 21:30:50 88° SE 21:35:41 10° NE visible
04 Aug - 07:13:58 10° NNW 07:26:26 44° NE 07:47:47 10° ESE daylight
04 Aug - 09:39:13 10° WNW 09:57:21 78° SW 10:24:09 10° SE daylight
04 Aug - 12:11:44 10° W 12:32:55 37° SSW 12:54:35 10° SSE daylight
04 Aug - 14:57:47 10° SW 15:12:23 18° SSW 15:23:49 10° SSE daylight
04 Aug - 17:39:39 10° SSW 17:49:21 18° S 17:56:05 10° SE daylight
04 Aug - 20:09:39 10° SW 20:19:28 46° SSE 20:25:00 10° ENE visible
04 Aug - 22:40:03 10° W 22:44:33 22° NW 22:48:08 10° N night (unlit)
